Weather History for Crossville, TN

Change the Weather History Date:

Saturday, December 1, 2012

  Actual Average Record
Temperature  
Mean Temperature 53 °F 42 °F  
Max Temperature 63 °F 51 °F 68 °F (1970)
Min Temperature 42 °F 33 °F 12 °F (1960)
Degree Days  
Heating Degree Days 12    
Month to date heating degree days 12  
Since 1 July heating degree days 977  
Cooling Degree Days 0    
Month to date cooling degree days 0  
Year to date cooling degree days 1156  
Growing Degree Days 2 (Base 50)    
Moisture  
Dew Point 44 °F    
Average Humidity 78    
Maximum Humidity 100    
Minimum Humidity 56    
Precipitation  
Precipitation 0.00 in 0.18 in 2.42 in (1991)
Month to date precipitation 0.00 0.18  
Year to date precipitation 41.77 50.32  
Sea Level Pressure  
Sea Level Pressure 30.29 in    
Wind  
Wind Speed 3 mph (South)    
Max Wind Speed 12 mph    
Max Gust Speed 18 mph    
Visibility 7 miles    
Events Fog    
T = Trace of Precipitation, MM = Missing Value Source: NWS Daily Summary

Daily Weather History Graph

Daily Weather History Graph

Search for Another Location

Airport:

Trip Planner

Search our weather history database for the weather conditions in past years. The results will help you decide how hot, cold, wet, or windy it might be!

Date:

Astronomy

Dec. 01, 2012 Rise Set
Actual Time 6:32 AM CST 4:26 PM CST
Civil Twilight 6:04 AM CST 4:54 PM CST
Nautical Twilight 5:32 AM CST 5:26 PM CST
Astronomical Twilight 5:01 AM CST 5:57 PM CST
Moon 7:13 PM CST (12/1) 8:46 AM CST (12/1)
Length of Visible Light 10h 49m
Length of Day
9h 53m
Waning Gibbous, 91% of the Moon is Illuminated
Dec 1
Waning Gibbous
Dec 6
Last Quarter
Dec 13
New
Dec 19
First Quarter
Dec 28
Full

Hourly Weather History & Observations

Time (CST) Temp. Windchill Dew Point Humidity Pressure Visibility Wind Dir Wind Speed Gust Speed Precip Events Conditions
12:05 AM 48.2 °F - 44.6 °F 87% 30.28 in 10.0 mi Calm Calm - N/A   Partly Cloudy
12:41 AM 48.2 °F - 44.6 °F 87% 30.29 in 9.0 mi Calm Calm - N/A   Mostly Cloudy
12:53 AM 46.9 °F - 45.0 °F 93% 30.28 in 9.0 mi Calm Calm - N/A   Mostly Cloudy
2:41 AM 46.4 °F 45.2 °F 44.6 °F 93% 30.28 in 9.0 mi SSE 3.5 mph - N/A   Scattered Clouds
2:53 AM 46.9 °F - 44.1 °F 90% 30.27 in 9.0 mi Calm Calm - N/A   Partly Cloudy
3:53 AM 48.0 °F - 45.0 °F 89% 30.27 in 10.0 mi SSW 3.5 mph - N/A   Clear
4:53 AM 46.0 °F - 44.1 °F 93% 30.30 in 8.0 mi Calm Calm - N/A   Clear
5:38 AM 42.8 °F - 42.8 °F 100% 30.31 in 1.8 mi Calm Calm - N/A   Clear
5:45 AM 42.8 °F - 41.0 °F 93% 30.31 in 0.5 mi Calm Calm - N/A Fog Fog
5:49 AM 42.8 °F - 41.0 °F 93% 30.32 in 0.2 mi Calm Calm - N/A Fog Fog
5:56 AM 42.8 °F - 42.8 °F 100% 30.32 in 0.5 mi Calm Calm - N/A Fog Fog
6:05 AM 42.8 °F - 41.0 °F 93% 30.32 in 0.8 mi Calm Calm - N/A   Clear
6:12 AM 42.8 °F - 42.8 °F 100% 30.32 in 2.0 mi Calm Calm - N/A   Clear
6:31 AM 42.8 °F - 41.0 °F 93% 30.33 in 1.8 mi Calm Calm - N/A   Mostly Cloudy
6:40 AM 42.8 °F - 42.8 °F 100% 30.33 in 2.0 mi Calm Calm - N/A   Mostly Cloudy
6:53 AM 43.0 °F - 42.1 °F 97% 30.33 in 3.0 mi Calm Calm - N/A   Scattered Clouds
7:53 AM 46.9 °F - 45.0 °F 93% 30.33 in 4.0 mi Calm Calm - N/A   Clear
8:53 AM 54.0 °F - 46.9 °F 77% 30.34 in 10.0 mi Variable 5.8 mph - N/A   Clear
9:53 AM 57.0 °F - 46.9 °F 69% 30.34 in 10.0 mi SSE 6.9 mph - N/A   Partly Cloudy
10:21 AM 57.2 °F - 46.4 °F 67% 30.34 in 10.0 mi Variable 5.8 mph - N/A   Mostly Cloudy
10:53 AM 59.0 °F - 46.9 °F 64% 30.31 in 10.0 mi Variable 4.6 mph - N/A   Mostly Cloudy
11:00 AM 57.2 °F - 46.4 °F 67% 30.32 in 10.0 mi South 8.1 mph - N/A   Scattered Clouds
11:53 AM 60.1 °F - 46.0 °F 60% 30.28 in 10.0 mi Variable 5.8 mph - N/A   Partly Cloudy
12:53 PM 60.1 °F - 46.0 °F 60% 30.27 in 10.0 mi South 6.9 mph - N/A   Scattered Clouds
1:53 PM 62.1 °F - 46.0 °F 56% 30.25 in 10.0 mi SSE 4.6 mph - N/A   Scattered Clouds
2:53 PM 61.0 °F - 46.0 °F 58% 30.25 in 10.0 mi SSE 8.1 mph 18.4 mph N/A   Clear
3:53 PM 59.0 °F - 46.0 °F 62% 30.25 in 10.0 mi South 5.8 mph - N/A   Clear
4:53 PM 57.0 °F - 46.0 °F 67% 30.26 in 10.0 mi South 4.6 mph - N/A   Clear
5:53 PM 54.0 °F - 45.0 °F 72% 30.27 in 8.0 mi Calm Calm - N/A   Clear
6:53 PM 54.0 °F - 44.1 °F 69% 30.27 in 10.0 mi Calm Calm - N/A   Clear
7:53 PM 54.0 °F - 43.0 °F 66% 30.27 in 10.0 mi Calm Calm - N/A   Clear
8:53 PM 50.0 °F - 43.0 °F 77% 30.27 in 10.0 mi Calm Calm - N/A   Clear
9:53 PM 54.0 °F - 43.0 °F 66% 30.26 in 10.0 mi South 6.9 mph - N/A   Clear
10:53 PM 55.0 °F - 43.0 °F 64% 30.27 in 10.0 mi South 6.9 mph - N/A   Clear
11:53 PM 54.0 °F - 43.0 °F 66% 30.27 in 10.0 mi Variable 5.8 mph - N/A   Clear